Weather History for KSVC - March, 2013

Change the Weather History Date:

Friday, March 8, 2013

  Actual Average (KDMN) Record (KDMN)
Temperature  
Mean Temperature 44 °F 50 °F  
Max Temperature 55 °F 66 °F 86 °F (1960)
Min Temperature 32 °F 34 °F 18 °F (1956)
Degree Days  
Heating Degree Days 22    
Moisture  
Dew Point 29 °F    
Average Humidity 57    
Maximum Humidity 87    
Minimum Humidity 33    
Precipitation  
Precipitation 0.02 in 0.01 in 0.57 in (1968)
Month to date precipitation 0.16  
Year to date precipitation 1.36  
Sea Level Pressure  
Sea Level Pressure 29.96 in    
Wind  
Wind Speed 12 mph (West)    
Max Wind Speed 30 mph    
Max Gust Speed 43 mph    
Visibility 9 miles    
Events Rain , Thunderstorm    
T = Trace of Precipitation, MM = Missing Value Source: NWS Daily Summary

Daily Weather History Graph

Daily Weather History Graph

Search for Another Location

Airport or City:

Trip Planner

Search our weather history database for the weather conditions in past years. The results will help you decide how hot, cold, wet, or windy it might be!

Date:

Astronomy

Mar. 08, 2013 Rise Set
Actual Time 6:31 AM MST 6:15 PM MST
Civil Twilight 6:06 AM MST 6:40 PM MST
Nautical Twilight 5:38 AM MST 7:08 PM MST
Astronomical Twilight 5:09 AM MST 7:37 PM MST
Moon 4:09 AM MST (3/8) 3:21 PM MST (3/8)
Length of Visible Light 12h 33m
Length of Day
11h 44m
Waning Crescent, 11% of the Moon is Illuminated
Mar 8
Waning Crescent
Mar 11
New
Mar 19
First Quarter
Mar 27
Full
Apr 2
Last Quarter

Hourly Weather History & Observations

Time (MST) Temp. Windchill Dew Point Humidity Pressure Visibility Wind Dir Wind Speed Gust Speed Precip Events Conditions
12:15 AM 41.0 °F 34.7 °F 14.0 °F 33% 30.04 in 10.0 mi NNW 10.4 mph - N/A   Clear
12:35 AM 41.0 °F 34.7 °F 14.0 °F 33% 30.04 in 10.0 mi North 10.4 mph - N/A   Clear
12:55 AM 39.2 °F 32.5 °F 14.0 °F 36% 30.04 in 10.0 mi North 10.4 mph - N/A   Clear
1:15 AM 37.4 °F 30.3 °F 12.2 °F 36% 30.04 in 10.0 mi NNW 10.4 mph - N/A   Clear
1:55 AM 37.4 °F 30.8 °F 12.2 °F 36% 30.04 in 10.0 mi North 9.2 mph - N/A   Clear
2:15 AM 37.4 °F 31.4 °F 12.2 °F 36% 30.03 in 10.0 mi North 8.1 mph - N/A   Clear
2:35 AM 37.4 °F 32.8 °F 12.2 °F 36% 30.03 in 10.0 mi North 5.8 mph - N/A   Clear
2:55 AM 39.2 °F 37.0 °F 14.0 °F 36% 30.03 in 10.0 mi NW 3.5 mph - N/A   Clear
3:15 AM 37.4 °F 32.1 °F 14.0 °F 38% 30.02 in 10.0 mi North 6.9 mph - N/A   Clear
3:55 AM 32.0 °F 26.4 °F 12.2 °F 44% 30.02 in 10.0 mi North 5.8 mph - N/A   Clear
4:15 AM 33.8 °F 27.7 °F 14.0 °F 44% 30.01 in 10.0 mi North 6.9 mph - N/A   Clear
4:35 AM 32.0 °F 26.4 °F 14.0 °F 48% 30.01 in 10.0 mi North 5.8 mph - N/A   Partly Cloudy
4:55 AM 32.0 °F 27.5 °F 14.0 °F 48% 30.02 in 10.0 mi North 4.6 mph - N/A   Partly Cloudy
5:15 AM 32.0 °F 26.4 °F 14.0 °F 48% 30.01 in 10.0 mi North 5.8 mph - N/A   Clear
5:35 AM 33.8 °F 28.6 °F 14.0 °F 44% 30.01 in 10.0 mi North 5.8 mph - N/A   Clear
5:55 AM 37.4 °F 33.8 °F 15.8 °F 41% 30.02 in 10.0 mi NNE 4.6 mph - N/A   Scattered Clouds
6:15 AM 39.2 °F 35.9 °F 17.6 °F 42% 30.01 in 10.0 mi NNE 4.6 mph - N/A   Scattered Clouds
6:35 AM 41.0 °F 38.0 °F 17.6 °F 39% 30.01 in 10.0 mi NE 4.6 mph - N/A   Mostly Cloudy
6:55 AM 42.8 °F - 19.4 °F 39% 30.01 in 10.0 mi Calm Calm - N/A   Mostly Cloudy
7:15 AM 44.6 °F - 21.2 °F 39% 30.01 in 10.0 mi Calm Calm - N/A   Mostly Cloudy
7:55 AM 48.2 °F - 23.0 °F 37% 30.01 in 10.0 mi Calm Calm - N/A   Mostly Cloudy
8:15 AM 48.2 °F - 23.0 °F 37% 30.02 in 10.0 mi Calm Calm - N/A   Overcast
8:35 AM 48.2 °F - 24.8 °F 40% 30.02 in 10.0 mi SE 3.5 mph - N/A   Overcast
8:55 AM 50.0 °F - 24.8 °F 37% 30.02 in 10.0 mi SE 3.5 mph - N/A   Overcast
9:15 AM 53.6 °F - 24.8 °F 33% 30.00 in 10.0 mi South 6.9 mph - N/A   Mostly Cloudy
9:35 AM 53.6 °F - 26.6 °F 35% 30.00 in 10.0 mi South 10.4 mph - N/A   Mostly Cloudy
9:55 AM 55.4 °F - 28.4 °F 36% 29.99 in 10.0 mi South 17.3 mph 21.9 mph N/A   Overcast
10:15 AM 55.4 °F - 30.2 °F 38% 29.99 in 10.0 mi SSW 19.6 mph 28.8 mph N/A   Mostly Cloudy
10:35 AM 53.6 °F - 33.8 °F 47% 30.00 in 9.0 mi SSW 19.6 mph 34.5 mph N/A   Mostly Cloudy
10:55 AM 55.4 °F - 33.8 °F 44% 29.99 in 10.0 mi SSW 19.6 mph 27.6 mph N/A   Mostly Cloudy
11:15 AM 53.6 °F - 39.2 °F 58% 29.99 in 5.0 mi SSW 18.4 mph 31.1 mph N/A   Haze
11:35 AM 55.4 °F - 35.6 °F 47% 29.98 in 10.0 mi WSW 19.6 mph 26.5 mph N/A   Mostly Cloudy
11:55 AM 48.2 °F - 41.0 °F 76% 29.98 in 9.0 mi NW 17.3 mph - N/A Rain Light Rain
12:15 PM 48.2 °F - 41.0 °F 76% 29.99 in 7.0 mi West 19.6 mph 28.8 mph N/A   Overcast
12:35 PM 48.2 °F - 41.0 °F 76% 29.97 in 10.0 mi West 10.4 mph 18.4 mph N/A Thunderstorm Mostly Cloudy
12:55 PM 50.0 °F - 41.0 °F 71% 29.96 in 8.0 mi WSW 12.7 mph - N/A   Scattered Clouds
1:15 PM 50.0 °F - 41.0 °F 71% 29.94 in 10.0 mi SW 15.0 mph 23.0 mph N/A   Mostly Cloudy
1:35 PM 50.0 °F - 42.8 °F 76% 29.92 in 9.0 mi SSW 26.5 mph 29.9 mph N/A   Mostly Cloudy
1:55 PM 48.2 °F - 42.8 °F 82% 29.93 in 2.0 mi SW 23.0 mph 31.1 mph 0.01 in Thunderstorm Haze
2:15 PM 50.0 °F - 44.6 °F 82% 29.93 in 10.0 mi SW 19.6 mph 23.0 mph N/A   Mostly Cloudy
2:35 PM 50.0 °F - 44.6 °F 82% 29.92 in 7.0 mi SW 19.6 mph 25.3 mph N/A   Mostly Cloudy
2:55 PM 51.8 °F - 41.0 °F 67% 29.91 in 10.0 mi WSW 25.3 mph 34.5 mph N/A   Mostly Cloudy
3:15 PM 53.6 °F - 39.2 °F 58% 29.91 in 10.0 mi SW 23.0 mph 32.2 mph N/A   Scattered Clouds
3:35 PM 53.6 °F - 37.4 °F 54% 29.90 in 10.0 mi SW 28.8 mph 39.1 mph N/A Thunderstorm Partly Cloudy
3:55 PM 53.6 °F - 35.6 °F 51% 29.89 in 10.0 mi SW 27.6 mph 39.1 mph N/A Thunderstorm Thunderstorm
4:15 PM 53.6 °F - 33.8 °F 47% 29.88 in 10.0 mi SW 29.9 mph 39.1 mph N/A Thunderstorm Thunderstorm
4:35 PM 53.6 °F - 35.6 °F 51% 29.88 in 10.0 mi SW 24.2 mph 35.7 mph N/A Thunderstorm Thunderstorm
4:55 PM 53.6 °F - 28.4 °F 38% 29.87 in 10.0 mi SW 28.8 mph 42.6 mph N/A Thunderstorm Partly Cloudy
5:35 PM 50.0 °F - 35.6 °F 58% 29.87 in 10.0 mi SW 24.2 mph 31.1 mph N/A   Mostly Cloudy
5:55 PM 48.2 °F - 37.4 °F 66% 29.88 in 8.0 mi SW 19.6 mph 31.1 mph N/A   Mostly Cloudy
6:15 PM 48.2 °F - 35.6 °F 62% 29.88 in 10.0 mi WSW 15.0 mph 24.2 mph N/A   Mostly Cloudy
6:35 PM 46.4 °F 40.1 °F 35.6 °F 66% 29.89 in 10.0 mi WSW 15.0 mph 23.0 mph N/A   Scattered Clouds
6:55 PM 44.6 °F 36.1 °F 37.4 °F 76% 29.90 in 5.0 mi West 21.9 mph 34.5 mph N/A Rain Light Rain
7:15 PM 42.8 °F 34.8 °F 37.4 °F 81% 29.89 in 10.0 mi West 17.3 mph 25.3 mph N/A   Mostly Cloudy
7:35 PM 42.8 °F 36.6 °F 35.6 °F 76% 29.88 in 10.0 mi West 11.5 mph 21.9 mph N/A   Partly Cloudy
7:55 PM 41.0 °F 33.9 °F 35.6 °F 81% 29.88 in 10.0 mi West 12.7 mph - N/A   Partly Cloudy
8:15 PM 42.8 °F 35.1 °F 35.6 °F 76% 29.88 in 10.0 mi West 16.1 mph 19.6 mph N/A   Clear
8:55 PM 41.0 °F 31.4 °F 33.8 °F 76% 29.87 in 10.0 mi West 21.9 mph 39.1 mph N/A   Clear
9:15 PM 39.2 °F 29.0 °F 33.8 °F 81% 29.88 in 10.0 mi West 21.9 mph 31.1 mph N/A   Clear
9:35 PM 39.2 °F 29.8 °F 35.6 °F 87% 29.89 in 10.0 mi West 18.4 mph 26.5 mph N/A   Partly Cloudy
9:55 PM 39.2 °F 28.5 °F 33.8 °F 81% 29.89 in 10.0 mi WNW 24.2 mph 29.9 mph N/A   Clear
10:15 PM 37.4 °F 26.6 °F 33.8 °F 87% 29.91 in 5.0 mi WNW 21.9 mph 36.8 mph N/A Rain Light Rain
10:35 PM 35.6 °F 24.5 °F 32.0 °F 87% 29.91 in 7.0 mi WNW 20.7 mph 27.6 mph N/A Rain Light Rain
10:55 PM 35.6 °F 23.2 °F 32.0 °F 87% 29.92 in 7.0 mi WNW 26.5 mph 32.2 mph 0.01 in Rain Light Rain
11:15 PM 35.6 °F 25.5 °F 32.0 °F 87% 29.93 in 8.0 mi WNW 17.3 mph - N/A Rain Light Rain
11:35 PM 35.6 °F 27.1 °F 32.0 °F 87% 29.93 in 10.0 mi NW 12.7 mph - N/A Rain Light Rain
11:55 PM 35.6 °F 26.6 °F 32.0 °F 87% 29.94 in 7.0 mi West 13.8 mph 18.4 mph N/A Rain Light Rain